Time,TemperatureF,DewpointF,PressureIn,WindDirection,WindDirectionDegrees,WindSpeedMPH,WindSpeedGustMPH,Humidity,HourlyPrecipIn,Conditions,Clouds,dailyrainin,SoftwareType,DateUTC
2013-06-09 00:03:00,76.0,74.0,30.08,SSE,163,1.0,3.0,93,0.00,,,0.00,,2013-06-09 04:03:00,
2013-06-09 00:12:00,76.0,74.0,30.08,SSE,163,1.0,3.0,93,0.00,,,0.00,,2013-06-09 04:12:00,
2013-06-09 00:23:00,76.0,74.0,30.08,South,171,0.0,3.0,92,0.00,,,0.00,,2013-06-09 04:23:00,
2013-06-09 00:33:00,76.0,74.0,30.08,SSE,164,1.0,3.0,93,0.00,,,0.00,,2013-06-09 04:33:00,
2013-06-09 00:43:00,76.0,74.0,30.08,SSE,164,1.0,3.0,93,0.00,,,0.00,,2013-06-09 04:43:00,
2013-06-09 00:53:00,76.0,74.0,30.08,SSE,164,0.0,2.0,93,0.00,,,0.00,,2013-06-09 04:53:00,
2013-06-09 01:02:00,76.0,74.0,30.08,SSE,164,0.0,2.0,94,0.00,,,0.00,,2013-06-09 05:02:00,
2013-06-09 01:12:00,76.0,74.0,30.08,SSE,164,0.0,2.0,94,0.00,,,0.00,,2013-06-09 05:12:00,
2013-06-09 01:22:00,76.0,74.0,30.08,SSE,166,0.0,1.0,94,0.00,,,0.00,,2013-06-09 05:22:00,
2013-06-09 01:32:00,76.0,74.0,30.08,SSE,164,0.0,3.0,94,0.00,,,0.00,,2013-06-09 05:32:00,
2013-06-09 01:42:00,76.0,74.0,30.08,SSE,164,0.0,3.0,94,0.00,,,0.00,,2013-06-09 05:42:00,
2013-06-09 01:52:00,76.0,74.0,30.08,SSE,165,1.0,2.0,94,0.00,,,0.00,,2013-06-09 05:52:00,
2013-06-09 02:02:00,76.0,74.0,30.08,SSE,166,0.0,1.0,94,0.00,,,0.00,,2013-06-09 06:02:00,
2013-06-09 02:12:00,76.0,74.0,30.08,SSE,166,0.0,1.0,94,0.00,,,0.00,,2013-06-09 06:12:00,
2013-06-09 02:22:00,75.0,73.0,30.07,SSE,166,0.0,1.0,95,0.00,,,0.00,,2013-06-09 06:22:00,
2013-06-09 02:32:00,75.0,73.0,30.07,SSE,166,1.0,3.0,95,0.00,,,0.00,,2013-06-09 06:32:00,
2013-06-09 02:42:00,75.0,73.0,30.07,SSE,166,1.0,3.0,95,0.00,,,0.00,,2013-06-09 06:42:00,
2013-06-09 02:52:00,75.0,73.0,30.07,SSE,166,0.0,3.0,95,0.00,,,0.00,,2013-06-09 06:52:00,
2013-06-09 03:02:00,75.0,74.0,30.07,SSE,166,0.0,3.0,96,0.00,,,0.00,,2013-06-09 07:02:00,
2013-06-09 03:12:00,75.0,74.0,30.07,SSE,166,0.0,3.0,96,0.00,,,0.00,,2013-06-09 07:12:00,
2013-06-09 03:22:00,75.0,74.0,30.06,SSE,166,1.0,3.0,96,0.00,,,0.00,,2013-06-09 07:22:00,
2013-06-09 03:32:00,75.0,74.0,30.06,SSE,166,0.0,1.0,96,0.00,,,0.00,,2013-06-09 07:32:00,
2013-06-09 03:42:00,75.0,74.0,30.06,SSE,166,0.0,1.0,96,0.00,,,0.00,,2013-06-09 07:42:00,
2013-06-09 03:53:00,75.0,74.0,30.06,SSE,166,1.0,3.0,96,0.00,,,0.00,,2013-06-09 07:53:00,
2013-06-09 04:02:00,75.0,74.0,30.06,SSE,159,0.0,3.0,97,0.00,,,0.00,,2013-06-09 08:02:00,
2013-06-09 04:12:00,75.0,74.0,30.06,SSE,159,0.0,3.0,97,0.00,,,0.00,,2013-06-09 08:12:00,
2013-06-09 04:22:00,76.0,75.0,30.06,SSE,155,0.0,1.0,97,0.00,,,0.00,,2013-06-09 08:22:00,
2013-06-09 04:32:00,76.0,75.0,30.06,SSE,156,0.0,1.0,97,0.00,,,0.00,,2013-06-09 08:32:00,
2013-06-09 04:42:00,76.0,75.0,30.06,SSE,156,0.0,1.0,97,0.00,,,0.00,,2013-06-09 08:42:00,
2013-06-09 04:53:00,75.0,74.0,30.06,SSE,156,0.0,0.0,96,0.00,,,0.00,,2013-06-09 08:53:00,
2013-06-09 05:02:00,75.0,74.0,30.06,SSE,156,0.0,1.0,96,0.00,,,0.00,,2013-06-09 09:02:00,
2013-06-09 05:12:00,75.0,74.0,30.06,SSE,156,0.0,1.0,96,0.00,,,0.00,,2013-06-09 09:12:00,
2013-06-09 05:22:00,75.0,74.0,30.06,SSE,156,0.0,0.0,97,0.00,,,0.00,,2013-06-09 09:22:00,
2013-06-09 05:33:00,75.0,74.0,30.06,SSE,155,0.0,0.0,97,0.00,,,0.00,,2013-06-09 09:33:00,
2013-06-09 05:43:00,75.0,74.0,30.06,SSE,155,0.0,0.0,97,0.00,,,0.00,,2013-06-09 09:43:00,
2013-06-09 05:53:00,75.0,74.0,30.07,SSE,156,0.0,0.0,97,0.00,,,0.00,,2013-06-09 09:53:00,
2013-06-09 06:03:00,75.0,74.0,30.07,SSE,156,0.0,0.0,97,0.00,,,0.00,,2013-06-09 10:03:00,
2013-06-09 06:12:00,75.0,74.0,30.07,SSE,156,0.0,0.0,97,0.00,,,0.00,,2013-06-09 10:12:00,
2013-06-09 06:23:00,75.0,74.0,30.08,SSE,156,0.0,0.0,97,0.00,,,0.00,,2013-06-09 10:23:00,
2013-06-09 06:32:00,75.0,74.0,30.09,SSE,155,0.0,0.0,97,0.00,,,0.00,,2013-06-09 10:32:00,
2013-06-09 06:43:00,75.0,74.0,30.09,SSE,155,0.0,0.0,97,0.00,,,0.00,,2013-06-09 10:43:00,
2013-06-09 06:52:00,75.0,74.0,30.09,SSE,156,0.0,0.0,97,0.00,,,0.00,,2013-06-09 10:52:00,
2013-06-09 07:02:00,75.0,74.0,30.10,SSE,156,0.0,0.0,97,0.00,,,0.00,,2013-06-09 11:02:00,
2013-06-09 07:12:00,75.0,74.0,30.10,SSE,156,0.0,0.0,97,0.00,,,0.00,,2013-06-09 11:12:00,
2013-06-09 07:22:00,75.0,74.0,30.10,SSE,156,0.0,1.0,97,0.00,,,0.00,,2013-06-09 11:22:00,
2013-06-09 07:32:00,75.0,74.0,30.10,SSE,156,0.0,0.0,98,0.00,,,0.00,,2013-06-09 11:32:00,
2013-06-09 07:42:00,75.0,74.0,30.10,SSE,156,0.0,0.0,98,0.00,,,0.00,,2013-06-09 11:42:00,
2013-06-09 07:53:00,76.0,75.0,30.10,SSE,156,0.0,0.0,98,0.00,,,0.00,,2013-06-09 11:53:00,
2013-06-09 08:02:00,76.0,75.0,30.11,SSE,156,0.0,0.0,98,0.00,,,0.00,,2013-06-09 12:02:00,
2013-06-09 08:12:00,76.0,75.0,30.11,SSE,156,0.0,0.0,98,0.00,,,0.00,,2013-06-09 12:12:00,
2013-06-09 08:22:00,77.0,76.0,30.10,SSE,156,0.0,0.0,98,0.00,,,0.00,,2013-06-09 12:22:00,
2013-06-09 08:32:00,77.0,76.0,30.11,SSE,156,0.0,1.0,98,0.00,,,0.00,,2013-06-09 12:32:00,
2013-06-09 08:42:00,77.0,76.0,30.11,SSE,156,0.0,1.0,98,0.00,,,0.00,,2013-06-09 12:42:00,
2013-06-09 08:53:00,79.0,77.0,30.11,ESE,104,0.0,3.0,94,0.00,,,0.00,,2013-06-09 12:53:00,
2013-06-09 09:02:00,80.0,77.0,30.11,South,174,2.0,3.0,92,0.00,,,0.00,,2013-06-09 13:02:00,
2013-06-09 09:12:00,80.0,77.0,30.11,South,174,2.0,3.0,92,0.00,,,0.00,,2013-06-09 13:12:00,
2013-06-09 09:22:00,81.0,77.0,30.11,SE,126,2.0,6.0,87,0.00,,,0.00,,2013-06-09 13:22:00,
2013-06-09 09:32:00,82.0,78.0,30.11,SE,143,2.0,6.0,87,0.00,,,0.00,,2013-06-09 13:32:00,
2013-06-09 09:42:00,82.0,78.0,30.11,SE,143,2.0,6.0,87,0.00,,,0.00,,2013-06-09 13:42:00,
2013-06-09 09:52:00,82.0,77.0,30.11,SSE,149,2.0,6.0,85,0.00,,,0.00,,2013-06-09 13:52:00,
2013-06-09 10:02:00,82.0,77.0,30.11,SE,128,3.0,7.0,84,0.00,,,0.00,,2013-06-09 14:02:00,
2013-06-09 10:12:00,82.0,77.0,30.11,SE,128,3.0,7.0,84,0.00,,,0.00,,2013-06-09 14:12:00,
2013-06-09 10:22:00,83.0,77.0,30.11,East,97,3.0,8.0,83,0.00,,,0.00,,2013-06-09 14:22:00,
2013-06-09 10:32:00,83.0,77.0,30.11,ESE,120,2.0,7.0,82,0.00,,,0.00,,2013-06-09 14:32:00,
2013-06-09 10:43:00,83.0,77.0,30.11,ESE,120,2.0,7.0,82,0.00,,,0.00,,2013-06-09 14:43:00,
2013-06-09 10:52:00,84.0,76.0,30.11,SSE,157,3.0,8.0,78,0.00,,,0.00,,2013-06-09 14:52:00,
2013-06-09 11:02:00,84.0,76.0,30.11,SE,130,4.0,9.0,78,0.00,,,0.00,,2013-06-09 15:02:00,
2013-06-09 11:12:00,84.0,76.0,30.11,SE,130,4.0,9.0,78,0.00,,,0.00,,2013-06-09 15:12:00,
2013-06-09 11:22:00,83.0,76.0,30.11,SE,124,4.0,8.0,80,0.00,,,0.00,,2013-06-09 15:22:00,
2013-06-09 11:33:00,83.0,76.0,30.11,SE,132,6.0,10.0,80,0.00,,,0.00,,2013-06-09 15:33:00,
2013-06-09 11:43:00,83.0,76.0,30.11,SE,132,6.0,10.0,80,0.00,,,0.00,,2013-06-09 15:43:00,
2013-06-09 11:53:00,84.0,77.0,30.11,SSE,150,5.0,12.0,79,0.00,,,0.00,,2013-06-09 15:53:00,
2013-06-09 12:03:00,85.0,77.0,30.11,South,185,5.0,9.0,76,0.00,,,0.00,,2013-06-09 16:03:00,
2013-06-09 12:13:00,85.0,77.0,30.11,South,185,5.0,9.0,76,0.00,,,0.00,,2013-06-09 16:13:00,
2013-06-09 12:23:00,86.0,78.0,30.11,SSE,156,4.0,12.0,76,0.00,,,0.00,,2013-06-09 16:23:00,
2013-06-09 12:33:00,87.0,79.0,30.11,SSE,160,2.0,10.0,77,0.00,,,0.00,,2013-06-09 16:33:00,
2013-06-09 12:42:00,87.0,79.0,30.11,SSE,160,2.0,10.0,77,0.00,,,0.00,,2013-06-09 16:42:00,
2013-06-09 12:53:00,88.0,79.0,30.11,SE,145,4.0,13.0,75,0.00,,,0.00,,2013-06-09 16:53:00,
2013-06-09 13:03:00,88.0,79.0,30.10,SSW,194,3.0,20.0,75,0.00,,,0.00,,2013-06-09 17:03:00,
2013-06-09 13:12:00,88.0,79.0,30.10,SSW,194,3.0,20.0,75,0.00,,,0.00,,2013-06-09 17:12:00,
2013-06-09 13:22:00,88.0,79.0,30.09,SW,226,4.0,12.0,74,0.00,,,0.00,,2013-06-09 17:22:00,
2013-06-09 13:32:00,87.0,77.0,30.09,SSW,208,3.0,12.0,72,0.00,,,0.00,,2013-06-09 17:32:00,
2013-06-09 13:42:00,87.0,77.0,30.09,SSW,208,3.0,12.0,72,0.00,,,0.00,,2013-06-09 17:42:00,
2013-06-09 13:52:00,87.0,78.0,30.09,SSW,194,5.0,20.0,74,0.00,,,0.00,,2013-06-09 17:52:00,
2013-06-09 14:02:00,86.0,77.0,30.10,ESE,120,2.0,12.0,75,0.00,,,0.00,,2013-06-09 18:02:00,
2013-06-09 14:12:00,86.0,77.0,30.10,ESE,120,2.0,12.0,75,0.00,,,0.00,,2013-06-09 18:12:00,
2013-06-09 14:22:00,85.0,77.0,30.09,East,93,4.0,14.0,76,0.00,,,0.00,,2013-06-09 18:22:00,
2013-06-09 14:32:00,85.0,76.0,30.09,SSW,193,5.0,15.0,74,0.00,,,0.00,,2013-06-09 18:32:00,
2013-06-09 14:42:00,85.0,76.0,30.09,SSW,193,5.0,15.0,74,0.00,,,0.00,,2013-06-09 18:42:00,
2013-06-09 14:52:00,85.0,76.0,30.09,ESE,120,1.0,9.0,75,0.00,,,0.00,,2013-06-09 18:52:00,
2013-06-09 15:02:00,85.0,75.0,30.08,SSW,212,5.0,12.0,73,0.00,,,0.00,,2013-06-09 19:02:00,
2013-06-09 15:12:00,85.0,75.0,30.08,SSW,212,5.0,12.0,73,0.00,,,0.00,,2013-06-09 19:12:00,
2013-06-09 15:22:00,85.0,77.0,30.07,South,180,4.0,12.0,76,0.00,,,0.00,,2013-06-09 19:22:00,
2013-06-09 15:32:00,86.0,76.0,30.07,SSE,166,7.0,16.0,72,0.00,,,0.00,,2013-06-09 19:32:00,
2013-06-09 15:42:00,86.0,76.0,30.07,SSE,166,7.0,16.0,72,0.00,,,0.00,,2013-06-09 19:42:00,
2013-06-09 15:52:00,86.0,77.0,30.05,SE,129,5.0,14.0,75,0.00,,,0.00,,2013-06-09 19:52:00,
2013-06-09 16:03:00,85.0,76.0,30.05,SSE,162,5.0,16.0,75,0.00,,,0.00,,2013-06-09 20:03:00,
2013-06-09 16:12:00,85.0,76.0,30.05,SSE,162,5.0,16.0,75,0.00,,,0.00,,2013-06-09 20:12:00,
2013-06-09 16:22:00,85.0,77.0,30.05,South,175,3.0,12.0,76,0.00,,,0.00,,2013-06-09 20:22:00,
2013-06-09 16:32:00,85.0,77.0,30.05,SSW,197,2.0,12.0,77,0.00,,,0.00,,2013-06-09 20:32:00,
2013-06-09 16:42:00,85.0,77.0,30.05,SSW,197,2.0,12.0,77,0.00,,,0.00,,2013-06-09 20:42:00,
2013-06-09 16:52:00,85.0,76.0,30.05,SSE,157,6.0,17.0,75,0.00,,,0.00,,2013-06-09 20:52:00,
2013-06-09 17:02:00,84.0,76.0,30.05,South,185,2.0,12.0,76,0.00,,,0.00,,2013-06-09 21:02:00,
2013-06-09 17:12:00,84.0,76.0,30.05,South,185,2.0,12.0,76,0.00,,,0.00,,2013-06-09 21:12:00,
2013-06-09 17:22:00,83.0,75.0,30.06,SSW,207,3.0,10.0,78,0.00,,,0.00,,2013-06-09 21:22:00,
2013-06-09 17:33:00,83.0,76.0,30.07,South,169,1.0,12.0,80,0.00,,,0.00,,2013-06-09 21:33:00,
2013-06-09 17:43:00,83.0,76.0,30.07,South,169,1.0,12.0,80,0.00,,,0.00,,2013-06-09 21:43:00,
2013-06-09 17:53:00,82.0,75.0,30.06,SSE,164,1.0,12.0,80,0.00,,,0.00,,2013-06-09 21:53:00,
2013-06-09 18:02:00,82.0,75.0,30.07,SE,143,2.0,8.0,79,0.00,,,0.00,,2013-06-09 22:02:00,
2013-06-09 18:13:00,82.0,75.0,30.07,SE,143,2.0,8.0,79,0.00,,,0.00,,2013-06-09 22:13:00,
2013-06-09 18:23:00,82.0,76.0,30.07,SSE,161,2.0,7.0,81,0.00,,,0.00,,2013-06-09 22:23:00,
2013-06-09 18:33:00,82.0,75.0,30.07,SE,125,2.0,12.0,79,0.00,,,0.00,,2013-06-09 22:33:00,
2013-06-09 18:42:00,82.0,75.0,30.07,SE,125,2.0,12.0,79,0.00,,,0.00,,2013-06-09 22:42:00,
2013-06-09 18:52:00,82.0,75.0,30.06,South,183,2.0,10.0,80,0.00,,,0.00,,2013-06-09 22:52:00,
2013-06-09 19:02:00,82.0,76.0,30.06,SSE,167,1.0,12.0,81,0.00,,,0.00,,2013-06-09 23:02:00,
2013-06-09 19:12:00,82.0,76.0,30.06,SSE,167,1.0,12.0,81,0.00,,,0.00,,2013-06-09 23:12:00,
2013-06-09 19:22:00,81.0,75.0,30.06,South,182,2.0,10.0,82,0.00,,,0.00,,2013-06-09 23:22:00,
2013-06-09 19:32:00,80.0,74.0,30.06,SSE,163,3.0,10.0,83,0.00,,,0.00,,2013-06-09 23:32:00,
2013-06-09 19:43:00,80.0,74.0,30.06,SSE,163,3.0,10.0,83,0.00,,,0.00,,2013-06-09 23:43:00,
2013-06-09 19:52:00,79.0,74.0,30.07,SSE,159,3.0,12.0,85,0.00,,,0.00,,2013-06-09 23:52:00,
2013-06-09 20:02:00,79.0,74.0,30.08,SSE,165,2.0,8.0,86,0.00,,,0.00,,2013-06-10 00:02:00,
2013-06-09 20:13:00,79.0,74.0,30.08,SSE,165,2.0,8.0,86,0.00,,,0.00,,2013-06-10 00:13:00,
2013-06-09 20:22:00,78.0,74.0,30.08,South,186,3.0,7.0,88,0.00,,,0.00,,2013-06-10 00:22:00,
2013-06-09 20:32:00,78.0,74.0,30.08,SSE,153,2.0,8.0,89,0.00,,,0.00,,2013-06-10 00:32:00,
2013-06-09 20:42:00,78.0,74.0,30.08,SSE,153,2.0,8.0,89,0.00,,,0.00,,2013-06-10 00:42:00,
2013-06-09 20:52:00,78.0,74.0,30.09,SSE,161,2.0,8.0,88,0.00,,,0.00,,2013-06-10 00:52:00,
2013-06-09 21:02:00,78.0,74.0,30.09,SE,135,2.0,7.0,89,0.00,,,0.00,,2013-06-10 01:02:00,
2013-06-09 21:12:00,78.0,74.0,30.09,SE,135,2.0,7.0,89,0.00,,,0.00,,2013-06-10 01:12:00,
2013-06-09 21:22:00,78.0,75.0,30.09,SSE,167,3.0,8.0,90,0.00,,,0.00,,2013-06-10 01:22:00,
2013-06-09 21:32:00,78.0,75.0,30.09,South,190,3.0,9.0,90,0.00,,,0.00,,2013-06-10 01:32:00,
2013-06-09 21:43:00,78.0,75.0,30.09,South,190,3.0,9.0,90,0.00,,,0.00,,2013-06-10 01:43:00,
2013-06-09 21:52:00,77.0,74.0,30.09,South,183,2.0,8.0,91,0.00,,,0.00,,2013-06-10 01:52:00,
2013-06-09 22:02:00,77.0,74.0,30.09,SE,138,5.0,12.0,91,0.00,,,0.00,,2013-06-10 02:02:00,
2013-06-09 22:12:00,77.0,74.0,30.09,SE,138,5.0,12.0,91,0.00,,,0.00,,2013-06-10 02:12:00,
2013-06-09 22:22:00,77.0,74.0,30.09,SSE,167,2.0,9.0,92,0.00,,,0.00,,2013-06-10 02:22:00,
2013-06-09 22:32:00,77.0,74.0,30.09,SSE,154,2.0,5.0,92,0.00,,,0.00,,2013-06-10 02:32:00,
2013-06-09 22:42:00,77.0,74.0,30.09,SSE,154,2.0,5.0,92,0.00,,,0.00,,2013-06-10 02:42:00,
2013-06-09 22:52:00,77.0,74.0,30.09,South,174,2.0,7.0,91,0.00,,,0.00,,2013-06-10 02:52:00,
2013-06-09 23:02:00,77.0,74.0,30.09,South,188,0.0,9.0,91,0.00,,,0.00,,2013-06-10 03:02:00,
2013-06-09 23:12:00,77.0,74.0,30.09,South,188,0.0,9.0,91,0.00,,,0.00,,2013-06-10 03:12:00,
2013-06-09 23:22:00,77.0,74.0,30.10,South,170,1.0,8.0,91,0.00,,,0.00,,2013-06-10 03:22:00,
2013-06-09 23:33:00,77.0,74.0,30.10,SSE,164,2.0,10.0,92,0.00,,,0.00,,2013-06-10 03:33:00,
2013-06-09 23:43:00,77.0,74.0,30.10,SSE,164,2.0,10.0,92,0.00,,,0.00,,2013-06-10 03:43:00,
2013-06-09 23:53:00,77.0,74.0,30.09,ESE,113,2.0,12.0,92,0.00,,,0.00,,2013-06-10 03:53:00,